Location: Unspecified
(49.9820°N, 20.4363°E)
Time: 22:46:50
(UTC+02:00)

A-11 Canister half - Visible Passes

Search period start: 15 May 2026 00:00
Search period end: 25 May 2026 00:00
Orbit: 1523 x 1685 km, 47.3° (Epoch: 15 May)

Date Brightness Start Highest point End Pass type
(mag) Time Alt. Az. Time Alt. Az. Time Alt. Az.
15 May 9.7 00:18:13 10° W 00:26:54 36° SW 00:29:52 30° S visible
15 May 9.1 21:51:17 10° W 22:00:59 69° SSW 22:10:23 12° ESE visible
15 May 9.6 23:56:19 10° W 00:05:06 37° SW 00:08:36 29° S visible
16 May 10.7 02:05:53 10° WSW 02:06:51 10° WSW 02:06:51 10° WSW visible
16 May 9.2 21:29:25 10° W 21:39:07 70° SSW 21:49:07 10° ESE visible
16 May 9.6 23:34:26 10° WNW 23:43:18 39° SW 23:47:26 28° S visible
17 May 10.6 01:43:06 10° WSW 01:45:40 12° WSW 01:45:40 12° WSW visible
17 May 9.2 21:07:35 10° W 21:17:16 71° SSW 21:27:15 10° ESE visible
17 May 9.6 23:12:33 10° WNW 23:21:29 40° SW 23:26:18 26° S visible
18 May 10.6 01:20:37 10° W 01:24:22 13° WSW 01:24:33 13° SW visible
18 May 9.2 20:45:44 10° W 20:55:24 72° SSW 21:05:23 10° ESE visible
18 May 9.6 22:50:41 10° WNW 22:59:40 41° SW 23:05:14 23° SSE visible
19 May 10.5 00:58:17 10° W 01:02:38 14° SW 01:03:28 14° SW visible
19 May 9.6 22:28:48 10° WNW 22:37:51 43° SW 22:44:13 21° SSE visible
20 May 10.5 00:36:03 10° W 00:40:52 15° SW 00:42:28 14° SW visible
20 May 9.6 22:06:57 10° WNW 22:16:01 44° SW 22:23:14 18° SSE visible
21 May 10.5 00:13:52 10° W 00:19:07 16° SW 00:21:29 14° SW visible
21 May 9.6 21:45:05 10° WNW 21:54:12 46° SSW 22:02:19 14° SSE visible
21 May 10.5 23:51:45 10° W 23:57:21 17° SW 00:00:34 14° SSW visible
22 May 9.6 21:23:14 10° WNW 21:32:23 47° SSW 21:41:26 11° SE visible
22 May 10.5 23:29:40 10° W 23:35:36 18° SW 23:39:41 14° SSW visible
23 May 9.6 21:01:22 10° WNW 21:10:33 49° SSW 21:20:00 10° SE visible
23 May 10.5 23:07:36 10° W 23:13:50 19° SW 23:18:51 13° SSW visible
24 May 10.5 22:45:35 10° W 22:52:04 20° SW 22:58:03 11° SSW visible
